User: anonymous
Location: Caltech
(34.1382°N, 118.1253°W)
Time: 12:13:54
(UTC-07:00)
Language:

Oscar 19 - Orbit

View from above orbital plane
View from above orbital plane
View from above satellite
View from above satellite

Ground track
Ground track

The orbit data is extracted from the following two-line orbital elements,

1 20442U 90005G   14206.42010837  .00000038  00000-0  29766-4 0   136
2 20442 098.4787 143.5782 0012407 040.9593 319.2521 14.32571091280153
Epoch (UTC): 25 July 2014 10:04:57
Eccentricity: 0.0012407
inclination: 98.4787°
perigee height: 774 km
apogee height: 792 km
right ascension of ascending node: 143.5782°
argument of perigee: 40.9593°
revolutions per day: 14.32571091
mean anomaly at epoch: 319.2521°
orbit number at epoch: 28015

The dashed part of the orbit path shows where the satellite is in the earth's shadow,  

DLR